EW4529 Weather Reports


Display with metric or nautical units.
time (UTC)temp
F
wind
direction
speed
MPH
gust
MPH
rain 1hr
in
rain 24hr
in
rain mn
in
humidity
%
barometer
mb
20260510153322 79 336 0.0 7.0 0.00 0.00 0.00 47 1013.2
20260510152343 78 233 2.0 4.0 0.00 0.00 0.00 49 1013.2
20260510151345 78 38 1.0 4.0 0.00 0.00 0.00 50 1013.2
20260510150322 76 117 1.0 4.0 0.00 0.00 0.00 54 1013.3
20260510145337 73 134 0.0 3.0 0.00 0.00 0.00 60 1013.4
20260510144314 72 279 1.0 4.0 0.00 0.00 0.00 64 1013.5
20260510143325 71 13 0.0 0.0 0.00 0.00 0.00 65 1013.4
20260510142323 70 340 0.0 5.0 0.00 0.00 0.00 68 1013.4
20260510141319 69 138 0.0 1.0 0.00 0.00 0.00 71 1013.5
20260510140322 68 239 0.0 3.0 0.00 0.00 0.00 74 1013.4
20260510135313 67 62 0.0 3.0 0.00 0.00 0.00 75 1013.4
20260510134314 65 3 0.0 3.0 0.00 0.00 0.00 79 1013.4
20260510133331 64 265 0.0 2.0 0.00 0.00 0.00 81 1013.3
20260510132328 63 141 0.0 2.0 0.00 0.00 0.00 83 1013.2
20260510131324 61 124 0.0 2.0 0.00 0.00 0.00 87 1013.4
20260510130315 60 15 1.0 3.0 0.00 0.00 0.00 90 1013.5
20260510125311 58 233 0.0 1.0 0.00 0.00 0.00 94 1013.6
20260510124328 57 108 0.0 1.0 0.00 0.00 0.00 96 1013.5
20260510123327 56 145 0.0 0.0 0.00 0.00 0.00 97 1013.4
20260510122325 56 146 0.0 0.0 0.00 0.00 0.00 97 1013.2
20260510121315 55 146 0.0 1.0 0.00 0.00 0.00 97 1013.0
20260510120338 54 144 0.0 3.0 0.00 0.00 0.00 97 1013.0
20260510115316 53 129 0.0 2.0 0.00 0.00 0.00 97 1013.0
20260510114319 53 8 0.0 1.0 0.00 0.00 0.00 97 1013.0
20260510113311 53 9 0.0 1.0 0.00 0.00 0.00 97 1012.8
20260510112340 52 99 0.0 1.0 0.00 0.00 0.00 97 1012.5
20260510111337 52 4 0.0 1.0 0.00 0.00 0.00 97 1012.8
20260510110312 52 352 0.0 1.0 0.00 0.00 0.00 97 1012.7
20260510105323 52 20 0.0 0.0 0.00 0.00 0.00 97 1012.4
20260510104323 51 66 0.0 0.0 0.00 0.00 0.00 97 1012.2
20260510103320 51 79 0.0 0.0 0.00 0.00 0.00 97 1012.1
20260510102307 51 100 0.0 0.0 0.00 0.00 0.00 97 1012.2
20260510101328 51 100 0.0 1.0 0.00 0.00 0.00 97 1012.1
20260510100323 51 89 0.0 0.0 0.00 0.00 0.00 97 1012.1
20260510095343 51 93 0.0 0.0 0.00 0.00 0.00 97 1012.0
20260510094325 51 93 0.0 1.0 0.00 0.00 0.00 97 1011.8
20260510093350 51 350 0.0 2.0 0.00 0.00 0.00 97 1011.9
20260510092328 51 13 0.0 2.0 0.00 0.00 0.00 97 1011.8
20260510091352 51 343 0.0 2.0 0.00 0.00 0.00 97 1011.6
20260510090329 51 35 0.0 1.0 0.00 0.00 0.00 97 1011.8
20260510085309 50 352 1.0 5.0 0.00 0.00 0.00 97 1012.0
20260510084307 50 30 0.0 2.0 0.00 0.00 0.00 97 1011.9
20260510083323 50 22 0.0 2.0 0.00 0.00 0.00 97 1011.7
20260510082324 50 150 0.0 1.0 0.00 0.00 0.00 97 1011.1
20260510081346 50 9 0.0 0.0 0.00 0.00 0.00 97 1011.2
20260510080329 50 10 0.0 1.0 0.00 0.00 0.00 97 1011.3
20260510075330 50 8 0.0 1.0 0.00 0.00 0.00 97 1011.2
20260510074329 50 349 0.0 1.0 0.00 0.00 0.00 97 1011.2
20260510073328 49 13 0.0 1.0 0.00 0.00 0.00 97 1011.1
20260510072312 49 122 0.0 0.0 0.00 0.00 0.00 97 1011.0
20260510071335 49 123 0.0 0.0 0.00 0.00 0.00 97 1010.9
20260510070311 49 122 0.0 0.0 0.00 0.00 0.00 97 1010.7
20260510065341 48 122 0.0 0.0 0.00 0.00 0.00 97 1010.6
20260510064312 49 123 0.0 0.0 0.00 0.00 0.00 97 1010.5
20260510063313 49 122 0.0 0.0 0.00 0.00 0.00 97 1010.6
20260510062314 49 122 0.0 0.0 0.00 0.00 0.00 97 1010.7
20260510061308 49 122 0.0 0.0 0.00 0.00 0.00 97 1010.6
20260510060310 49 122 0.0 0.0 0.00 0.00 0.00 96 1010.7
20260510055310 49 122 0.0 0.0 0.00 0.00 0.00 97 1010.8
20260510054332 49 122 0.0 0.0 0.00 0.00 0.00 96 1010.9
20260510053326 49 122 0.0 0.0 0.00 0.00 0.00 96 1010.9
20260510052308 50 122 0.0 0.0 0.00 0.00 0.00 96 1011.0
20260510051312 49 123 0.0 0.0 0.00 0.00 0.00 96 1011.1
20260510050325 49 122 0.0 0.0 0.00 0.00 0.00 96 1011.1
20260510045323 50 122 0.0 0.0 0.00 0.00 0.00 96 1011.2
20260510044327 50 123 0.0 0.0 0.00 0.00 0.00 96 1011.2
20260510043349 50 122 0.0 0.0 0.00 0.00 0.00 96 1011.3
20260510042321 50 122 0.0 0.0 0.00 0.00 0.00 96 1011.4
20260510041323 50 122 0.0 0.0 0.00 0.00 0.00 96 1011.4
20260510040319 51 122 0.0 0.0 0.00 0.00 0.00 96 1011.4
20260510035318 51 122 0.0 0.0 0.00 0.00 0.00 96 1011.4
20260510034320 51 122 0.0 0.0 0.00 0.00 0.00 95 1011.2
20260510033323 51 122 0.0 0.0 0.00 0.00 0.00 95 1011.2
20260510032316 51 123 0.0 0.0 0.00 0.00 0.00 95 1011.0
20260510031316 52 123 0.0 0.0 0.00 0.00 0.00 95 1010.9
20260510030341 52 122 0.0 0.0 0.00 0.00 0.00 95 1010.8
20260510025318 52 123 0.0 0.0 0.00 0.00 0.00 95 1010.8
20260510024310 52 123 0.0 0.0 0.00 0.00 0.00 94 1010.8
20260510023311 52 122 0.0 0.0 0.00 0.00 0.00 94 1010.9
20260510022313 52 123 0.0 0.0 0.00 0.00 0.00 94 1010.8
20260510021319 53 122 0.0 0.0 0.00 0.00 0.00 94 1010.8
20260510020314 53 122 0.0 0.0 0.00 0.00 0.00 93 1010.7
20260510015317 53 122 0.0 0.0 0.00 0.00 0.00 93 1010.7
20260510014309 53 122 0.0 0.0 0.00 0.00 0.00 92 1010.6
20260510013309 53 122 0.0 0.0 0.00 0.00 0.00 92 1010.7
20260510012330 54 122 0.0 0.0 0.00 0.00 0.00 91 1010.6
20260510011309 54 122 0.0 0.0 0.00 0.00 0.00 91 1010.6
20260510010331 55 123 0.0 0.0 0.00 0.00 0.00 91 1010.5
20260510005307 55 123 0.0 1.0 0.00 0.00 0.00 91 1010.5
20260510004331 55 108 0.0 0.0 0.00 0.00 0.00 90 1010.3
20260510003325 55 108 0.0 0.0 0.00 0.00 0.00 89 1010.3
20260510002324 56 108 0.0 0.0 0.00 0.00 0.00 89 1010.3
20260510001326 56 108 0.0 0.0 0.00 0.00 0.00 88 1010.3
20260510000319 57 108 0.0 0.0 0.00 0.00 0.00 86 1010.3
20260509235320 57 108 0.0 1.0 0.00 0.00 0.00 85 1010.2
20260509234323 58 174 0.0 0.0 0.00 0.00 0.00 83 1010.3
20260509233325 58 174 0.0 0.0 0.00 0.00 0.00 81 1010.2
20260509232327 59 174 0.0 0.0 0.00 0.00 0.00 79 1010.1
20260509231329 60 174 0.0 0.0 0.00 0.00 0.00 79 1010.0
20260509230308 60 172 0.0 0.0 0.00 0.00 0.00 78 1009.9
20260509225333 60 172 0.0 1.0 0.00 0.00 0.00 77 1010.0
20260509224308 60 148 0.0 1.0 0.00 0.00 0.00 78 1010.0
20260509223334 60 148 0.0 1.0 0.00 0.00 0.00 79 1010.1
20260509222313 60 143 0.0 3.0 0.00 0.00 0.00 79 1010.2
20260509221336 60 158 0.0 2.0 0.00 0.00 0.00 80 1010.1
20260509220341 59 11 0.0 0.0 0.00 0.00 0.00 80 1010.3
20260509215340 59 51 0.0 2.0 0.00 0.00 0.00 81 1010.2
20260509214322 59 130 0.0 2.0 0.00 0.00 0.00 80 1010.3
20260509213322 59 339 0.0 1.0 0.00 0.00 0.00 81 1010.4
20260509212324 59 351 0.0 1.0 0.00 0.00 0.00 80 1010.5
20260509211308 59 4 0.0 2.0 0.00 0.00 0.00 81 1010.5
20260509210310 59 324 0.0 1.0 0.00 0.00 0.00 80 1010.3
20260509205313 59 65 0.0 2.0 0.00 0.00 0.00 79 1010.4
20260509204315 60 12 0.0 3.0 0.00 0.00 0.00 78 1010.3
20260509203313 61 191 1.0 6.0 0.00 0.00 0.00 76 1010.2
20260509202311 61 254 0.0 4.0 0.00 0.00 0.00 79 1010.2
20260509201308 60 316 1.0 6.0 0.00 0.00 0.00 81 1010.1
20260509200316 60 6 1.0 5.0 0.00 0.00 0.00 81 1010.1
20260509195313 59 6 1.0 7.0 0.00 0.00 0.00 82 1010.4
20260509194309 60 349 2.0 6.0 0.00 0.00 0.00 79 1010.4
20260509193321 60 316 2.0 4.0 0.00 0.00 0.00 82 1010.6
20260509192317 59 353 0.0 4.0 0.00 0.00 0.00 84 1010.8
20260509191314 59 144 2.0 8.0 0.00 0.00 0.00 84 1011.0
20260509190330 59 349 1.0 4.0 0.00 0.00 0.00 84 1011.2
20260509185323 59 339 0.0 5.0 0.00 0.00 0.00 82 1011.1
20260509184312 59 338 1.0 3.0 0.00 0.00 0.00 80 1011.1
20260509183311 59 318 3.0 7.0 0.00 0.00 0.00 78 1011.2
20260509182327 60 304 2.0 6.0 0.00 0.00 0.00 77 1011.3
20260509181329 61 140 3.0 12.0 0.00 0.00 0.00 75 1011.4
20260509180317 61 328 2.0 6.0 0.00 0.00 0.00 71 1011.4
20260509175335 62 24 2.0 5.0 0.00 0.00 0.00 70 1011.3
20260509174311 62 42 1.0 4.0 0.00 0.00 0.00 72 1011.2
20260509173349 63 354 1.0 5.0 0.00 0.00 0.00 72 1010.9
20260509172346 63 29 0.0 4.0 0.00 0.00 0.00 69 1011.0
20260509171339 64 337 1.0 5.0 0.00 0.00 0.00 68 1011.1
20260509170316 64 133 0.0 4.0 0.00 0.00 0.00 70 1011.2
20260509165331 64 30 0.0 7.0 0.00 0.00 0.00 68 1011.3
20260509164319 64 206 1.0 5.0 0.00 0.00 0.00 66 1011.2
20260509163325 64 342 2.0 6.0 0.00 0.00 0.00 67 1011.3
20260509162320 64 267 0.0 3.0 0.00 0.00 0.00 67 1011.3
20260509161320 64 330 0.0 3.0 0.00 0.00 0.00 69 1011.5
20260509160330 64 340 0.0 3.0 0.00 0.00 0.00 67 1011.7
20260509155338 64 360 0.0 3.0 0.00 0.00 0.00 68 1011.8
20260509154332 65 136 0.0 2.0 0.00 0.00 0.00 68 1011.9